Regional Weather Roundup
Issued by NWS Green Bay, WI

Home | Current Version | Previous Version | Text Only | Print | Product List | Glossary On
Versions: 1 2 3 4 5 6 7 8 9 10 11 12 13 14 15 16 17 18 19 20 21 22 23 24 25 26 27 28 29 30 31 32 33 34 35 36 37 38 39 40 41 42 43 44 45 46 47 48 49 50
000
ASUS43 KGRB 221601
RWRGRB

NORTH-CENTRAL AND NORTHEAST WISCONSIN REGIONAL WEATHER ROUNDUP
NATIONAL WEATHER SERVICE GREEN BAY WI
1100 AM CDT SUN OCT 22 2017

WIZ005-009-010>012-018-019-221700-
NORTH CENTRAL WISCONSIN

CITY           SKY/WX    TMP DP  RH WIND       PRES   REMARKS
IRONWOOD       CLOUDY    49  41  74 W14       29.91R
MANITOWISH WTR NOT AVBL
ARBOR VITAE    NOT AVBL
EAGLE RIVER    NOT AVBL
LAND O LAKES   NOT AVBL
RHINELANDER    LGT RAIN  48  47  96 W8        29.94R
PHILLIPS       NOT AVBL
ANTIGO         NOT AVBL
TOMAHAWK       NOT AVBL
MERRILL        NOT AVBL
$$

WIZ013-073-221700-
NORTHEAST WISCONSIN

CITY           SKY/WX    TMP DP  RH WIND       PRES   REMARKS
IRON MOUNTAIN  RAIN      52  48  86 W8        29.91R FOG
MARINETTE      CLOUDY    60  58  92 NW8       29.89R
$$

WIZ017-030-035>037-045-221700-
CENTRAL WISCONSIN

CITY           SKY/WX    TMP DP  RH WIND       PRES   REMARKS
MEDFORD        NOT AVBL
WAUSAU         LGT RAIN  49  46  90 W9        29.94R
MOSINEE        NOT AVBL
MARSHFIELD     LGT RAIN  49  44  83 W8        29.97R
WISC RAPIDS    LGT RAIN  51  47  86 NW7       29.99R
STEVENS POINT  NOT AVBL
WAUPACA        NOT AVBL
SHAWANO        NOT AVBL
CLINTONVILLE   NOT AVBL
WAUTOMA        LGT RAIN N/A N/A N/A W7        29.98R
$$

WIZ038-039-048-051-221700-
FOX VALLEY

CITY           SKY/WX    TMP DP  RH WIND       PRES   REMARKS
NWS GREEN BAY  CLOUDY    54  52  93 W12       29.93R
APPLETON       CLOUDY    52  52 100 NW14      29.92R
OSHKOSH        LGT RAIN  50  48  93 NW17G26   29.95R FOG
FOND DU LAC    LGT RAIN  54  50  86 NW7       29.96R
$$

WIZ022-050-052-221700-
EAST CENTRAL WISCONSIN

CITY           SKY/WX    TMP DP  RH WIND       PRES   REMARKS
EPHRAIM        NOT AVBL
WASHINGTON ISL NOT AVBL
STURGEON BAY   LGT RAIN  58  55  90 S12       29.90S
MANITOWOC      NOT AVBL
SHEBOYGAN      RAIN      60  59  96 S8        29.89F FOG
$$

LMZ563-521-522-541>543-221700-
LAKESHORE

STATION/POSITION TIME  TEMP    WIND        PRES    VSBY  WAVE
                       AIR SEA DIR/SP/G                  HT/PER
                 (UTC) (F)     (DEG/KT/KT) (MB)    (MI)  (FT/S)
SHEBOYGAN LKSHOR 1500   55     180/ 19/ 20 1012.4F
KEWAUNEE LKSHORE 1530   55     180/ 15/ 18 1011.7R
NORTHPORT PIER   1540   59     160/  9/ 15 1011.9F
N MID LAKE BUOY  1450   61 58  180/ 19/ 21 1013.0R         7/ 6
S GREEN BAY BUOY 1530   59 58  180/ 12/ 14 1011.5R
SISTER BAY LKSHO 1519   58     160/ 17/ 19   N/A
MENOMINEE LKSHOR 1530   59     180/  8/ 12 1011.2F
$$



USA.gov is the U.S. government's official web portal to all federal, state and local government web resources and services.